Date String (YYYY-MM-DD hh:mm:ss) UTC,Instrument flags,Ambient pressure (hPa),Sample flow (lpm),Bypass flow (lpm),Sample temperature (°C),Ambient temperature (°C),ASC tube jacket temperature (°C),LED temperature (°C),Box temperature (°C),Sample RH (%),Span deviation,Mass concentration (μg/m³),Mass concentration (μg/m³),Mass concentration (μg/m³)
DateTimeUTC,F1_M11,P_M11,Q1_M11,Q2_M11,T1_M11,T2_M11,T3_M11,T4_M11,T5_M11,U1_M11,ZSPAN_M11,X2_M11,X0_M11,X1_M11
2022-05-25 09:00:00,,0826.0,5.00,0.00,26.4,25.3,00.0,35.4,28.3,17.6,0000.0,0002.44,0005.81,0001.92
2022-05-25 09:01:00,,0826.0,5.00,0.00,26.4,25.3,00.0,35.4,28.3,17.6,0000.0,0002.42,0005.42,0001.96
2022-05-25 09:02:00,,0826.0,5.00,0.00,26.4,25.3,00.0,35.4,28.3,17.6,0000.0,0002.40,0005.30,0002.00
2022-05-25 09:03:00,,0826.0,5.01,0.00,26.4,25.3,00.0,35.4,28.3,17.6,0000.0,0002.41,0005.27,0002.03
2022-05-25 09:04:00,,0826.0,5.00,0.00,26.4,25.3,00.0,35.4,28.3,17.7,0000.0,0002.43,0005.30,0002.04
2022-05-25 09:05:00,,0826.1,4.99,0.00,26.4,25.3,00.0,35.4,28.3,17.7,0000.0,0002.45,0005.10,0002.05
2022-05-25 09:06:00,,0826.1,5.00,0.00,26.4,25.3,00.0,35.4,28.3,17.6,0000.0,0002.48,0003.54,0002.07
2022-05-25 09:07:00,,0826.1,5.00,0.00,26.4,25.3,00.0,35.4,28.3,17.6,0000.0,0002.47,0003.48,0002.09
2022-05-25 09:08:00,,0826.0,5.00,0.00,26.4,25.3,00.0,35.4,28.3,17.4,0000.0,0002.44,0003.41,0002.08
2022-05-25 09:09:00,,0826.0,4.99,0.00,26.4,25.3,00.0,35.4,28.3,17.2,0000.0,0002.44,0003.76,0002.06
2022-05-25 09:10:00,,0826.0,5.00,0.00,26.4,25.3,00.0,35.4,28.3,16.9,0000.0,0002.43,0003.69,0002.02
2022-05-25 09:11:00,,0826.0,5.01,0.00,26.4,25.2,00.0,35.4,28.3,16.6,0000.0,0002.32,0003.47,0001.94
2022-05-25 09:12:00,,0826.0,5.01,0.00,26.4,25.2,00.0,35.4,28.3,16.4,0000.0,0002.27,0003.54,0001.87
2022-05-25 09:13:00,,0826.0,4.98,0.00,26.4,25.2,00.0,35.3,28.3,16.3,0000.0,0002.20,0003.46,0001.81
2022-05-25 09:14:00,,0826.0,5.00,0.00,26.4,25.2,00.0,35.3,28.3,16.3,0000.0,0002.14,0003.40,0001.74
2022-05-25 09:15:00,,0826.0,5.00,0.00,26.4,25.2,00.0,35.3,28.2,16.3,0000.0,0002.04,0003.25,0001.67
2022-05-25 09:16:00,,0826.0,5.00,0.00,26.4,25.2,00.0,35.3,28.2,16.3,0000.0,0001.96,0003.13,0001.60
2022-05-25 09:17:00,,0826.0,5.00,0.00,26.4,25.2,00.0,35.3,28.2,16.2,0000.0,0001.87,0003.06,0001.50
2022-05-25 09:18:00,,0826.0,4.99,0.00,26.4,25.2,00.0,35.3,28.2,16.3,0000.0,0001.76,0002.89,0001.41
2022-05-25 09:19:00,,0826.1,4.99,0.00,26.3,25.1,00.0,35.3,28.2,16.4,0000.0,0001.70,0002.79,0001.35
2022-05-25 09:20:00,,0826.0,5.00,0.00,26.3,25.1,00.0,35.3,28.2,16.4,0000.0,0001.58,0002.30,0001.29
2022-05-25 09:21:00,,0826.1,5.01,0.00,26.3,25.1,00.0,35.3,28.2,16.5,0000.0,0001.52,0002.22,0001.25
2022-05-25 09:22:00,,0826.0,5.00,0.00,26.3,25.1,00.0,35.3,28.2,16.7,0000.0,0001.51,0002.25,0001.23
2022-05-25 09:23:00,,0826.0,5.01,0.00,26.3,25.1,00.0,35.3,28.2,16.9,0000.0,0001.48,0002.08,0001.23
2022-05-25 09:24:00,,0826.0,4.99,0.00,26.3,25.1,00.0,35.3,28.1,16.9,0000.0,0001.50,0002.11,0001.25
2022-05-25 09:25:00,,0826.0,5.00,0.00,26.3,25.0,00.0,35.3,28.1,16.9,0000.0,0001.52,0002.13,0001.26
2022-05-25 09:26:00,,0826.0,5.01,0.00,26.3,25.0,00.0,35.3,28.1,16.9,0000.0,0001.58,0002.27,0001.27
2022-05-25 09:27:00,,0826.1,4.99,0.00,26.3,25.0,00.0,35.2,28.1,16.9,0000.0,0001.58,0002.25,0001.29
2022-05-25 09:28:00,,0826.0,5.01,0.00,26.3,25.0,00.0,35.2,28.1,16.9,0000.0,0001.57,0002.17,0001.30
2022-05-25 09:29:00,,0826.0,5.01,0.00,26.2,25.0,00.0,35.2,28.1,16.9,0000.0,0001.61,0002.21,0001.33
2022-05-25 09:30:00,,0826.0,5.00,0.00,26.2,25.0,00.0,35.2,28.1,16.9,0000.0,0001.63,0002.24,0001.34
2022-05-25 09:31:00,,0826.0,4.98,0.00,26.2,25.0,00.0,35.2,28.1,16.9,0000.0,0001.66,0002.28,0001.37
2022-05-25 09:32:00,,0826.0,5.00,0.00,26.2,25.0,00.0,35.2,28.1,16.9,0000.0,0001.69,0002.33,0001.39
2022-05-25 09:33:00,,0826.1,5.00,0.00,26.2,25.0,00.0,35.2,28.1,16.9,0000.0,0001.70,0002.35,0001.41
2022-05-25 09:34:00,,0826.0,5.00,0.00,26.2,25.0,00.0,35.2,28.1,16.9,0000.0,0001.74,0002.43,0001.43
2022-05-25 09:35:00,,0826.1,5.00,0.00,26.2,25.0,00.0,35.2,28.1,16.9,0000.0,0001.81,0002.62,0001.45
2022-05-25 09:36:00,,0826.1,5.00,0.00,26.2,25.0,00.0,35.2,28.1,17.0,0000.0,0001.83,0002.63,0001.46
2022-05-25 09:37:00,,0826.1,4.99,0.00,26.2,25.0,00.0,35.2,28.1,16.9,0000.0,0001.79,0002.51,0001.46
2022-05-25 09:38:00,,0826.2,5.02,0.00,26.2,25.0,00.0,35.2,28.1,17.0,0000.0,0001.83,0002.60,0001.47
2022-05-25 09:39:00,,0826.1,4.99,0.00,26.2,25.0,00.0,35.2,28.1,16.9,0000.0,0001.85,0002.64,0001.48
2022-05-25 09:40:00,,0826.1,4.99,0.00,26.2,25.0,00.0,35.2,28.1,17.0,0000.0,0001.85,0002.62,0001.50
2022-05-25 09:41:00,,0826.1,5.00,0.00,26.2,25.0,00.0,35.2,28.1,17.2,0000.0,0001.87,0002.65,0001.51
2022-05-25 09:42:00,,0826.1,5.01,0.00,26.2,25.0,00.0,35.1,28.1,17.1,0000.0,0001.87,0002.65,0001.52
2022-05-25 09:43:00,,0826.1,5.01,0.00,26.2,25.0,00.0,35.1,28.1,17.0,0000.0,0001.86,0002.58,0001.53
2022-05-25 09:44:00,,0826.1,4.99,0.00,26.2,25.0,00.0,35.1,28.1,16.9,0000.0,0001.85,0002.51,0001.54
2022-05-25 09:45:00,,0826.1,5.00,0.00,26.2,25.0,00.0,35.1,28.1,16.8,0000.0,0001.84,0002.49,0001.54
2022-05-25 09:46:00,,0826.1,5.00,0.00,26.2,25.0,00.0,35.1,28.1,16.6,0000.0,0001.79,0002.34,0001.53
2022-05-25 09:47:00,,0826.1,5.00,0.00,26.2,25.0,00.0,35.1,28.0,16.6,0000.0,0001.79,0002.37,0001.52
2022-05-25 09:48:00,,0826.1,5.01,0.00,26.2,25.0,00.0,35.1,28.0,16.6,0000.0,0001.80,0002.43,0001.51
2022-05-25 09:49:00,,0826.1,5.01,0.00,26.2,25.0,00.0,35.1,28.0,16.4,0000.0,0001.73,0002.28,0001.49
2022-05-25 09:50:00,,0826.1,4.99,0.00,26.1,25.0,00.0,35.1,28.0,16.6,0000.0,0001.67,0002.17,0001.47
2022-05-25 09:51:00,,0826.1,5.00,0.00,26.1,25.0,00.0,35.1,28.0,16.5,0000.0,0001.64,0002.16,0001.44
2022-05-25 09:52:00,,0826.1,4.99,0.00,26.1,25.0,00.0,35.1,28.0,16.4,0000.0,0001.61,0002.09,0001.41
2022-05-25 09:53:00,,0826.1,5.01,0.00,26.1,25.0,00.0,35.1,28.0,16.4,0000.0,0001.58,0002.07,0001.39
2022-05-25 09:54:00,,0826.1,4.99,0.00,26.1,25.0,00.0,35.1,28.0,16.5,0000.0,0001.56,0002.07,0001.36
2022-05-25 09:55:00,,0826.1,5.00,0.00,26.1,24.9,00.0,35.1,28.0,16.4,0000.0,0001.53,0002.04,0001.33
2022-05-25 09:56:00,,0826.1,5.01,0.00,26.1,24.9,00.0,35.1,28.0,16.2,0000.0,0001.50,0001.99,0001.31
2022-05-25 09:57:00,,0826.2,5.00,0.00,26.1,24.9,00.0,35.1,28.0,16.3,0000.0,0001.45,0001.90,0001.29
2022-05-25 09:58:00,,0826.1,5.00,0.00,26.1,24.9,00.0,35.1,28.0,16.5,0000.0,0001.40,0001.78,0001.27
2022-05-25 09:59:00,,0826.1,4.99,0.00,26.1,24.9,00.0,35.1,28.0,16.6,0000.0,0001.36,0001.73,0001.25
